Weather History for Seward, AK

Change the Weather History Date:

Tuesday, June 25, 2013

  Actual Average Record
Temperature  
Mean Temperature 66 °F -  
Max Temperature 78 °F 59 °F 80 °F (1953)
Min Temperature 54 °F 47 °F 40 °F (1963)
Cooling Degree Days 1    
Growing Degree Days 16 (Base 50)    
Moisture  
Dew Point 48 °F    
Average Humidity 57    
Maximum Humidity 83    
Minimum Humidity 39    
Precipitation  
Precipitation 0.00 in - - ()
Sea Level Pressure  
Sea Level Pressure 29.58 in    
Wind  
Wind Speed 8 mph (NNE)    
Max Wind Speed 14 mph    
Max Gust Speed 22 mph    
Visibility 10 miles    
Events Rain    
Averages and records for this station are not official NWS values.
T = Trace of Precipitation, MM = Missing Value Source: NWS Daily Summary

Daily Weather History Graph

Daily Weather History Graph

Search for Another Location

Airport:

Trip Planner

Search our weather history database for the weather conditions in past years. The results will help you decide how hot, cold, wet, or windy it might be!

Date:

Astronomy

Jun. 25, 2013 Rise Set
Actual Time 4:33 AM AKDT 11:26 PM AKDT
Civil Twilight 2:45 AM AKDT 1:14 AM AKDT
Nautical Twilight Sun does not rise Sun does not rise
Astronomical Twilight Sun does not rise Sun does not rise
Moon No Moon Rise 8:24 AM AKDT (6/25)
Length of Visible Light 22h 29m
Length of Day
18h 52m
Waning Gibbous, 92% of the Moon is Illuminated
Jun 25
Waning Gibbous
Jun 29
Last Quarter
Jul 7
New
Jul 15
First Quarter
Jul 22
Full

Hourly Weather History & Observations

Time (AKDT) Temp. Dew Point Humidity Pressure Visibility Wind Dir Wind Speed Gust Speed Precip Events Conditions
12:53 AM 54.0 °F 48.9 °F 83% 29.59 in 10.0 mi Calm Calm - N/A   Clear
1:53 AM 62.1 °F 46.9 °F 58% 29.58 in 10.0 mi NNE 11.5 mph 18.4 mph N/A   Clear
2:53 AM 60.1 °F 46.0 °F 60% 29.59 in 10.0 mi NNE 13.8 mph 20.7 mph N/A   Clear
3:53 AM 57.9 °F 46.0 °F 65% 29.58 in 10.0 mi North 12.7 mph - N/A   Clear
4:53 AM 57.9 °F 46.0 °F 65% 29.58 in 10.0 mi North 12.7 mph 20.7 mph N/A   Clear
5:53 AM 57.0 °F 46.0 °F 67% 29.57 in 10.0 mi NNE 13.8 mph 20.7 mph N/A   Clear
6:53 AM 59.0 °F 46.0 °F 62% 29.56 in 10.0 mi NNE 11.5 mph 21.9 mph N/A   Clear
7:53 AM 64.0 °F 46.9 °F 54% 29.56 in 10.0 mi NNE 9.2 mph 18.4 mph N/A   Clear
8:53 AM 66.0 °F 46.9 °F 50% 29.55 in 10.0 mi NNE 12.7 mph 21.9 mph N/A   Clear
9:53 AM 68.0 °F 48.0 °F 49% 29.55 in 10.0 mi NNE 11.5 mph 19.6 mph N/A   Clear
10:53 AM 68.0 °F 48.9 °F 50% 29.56 in 10.0 mi NNE 8.1 mph - N/A   Clear
11:53 AM 72.0 °F 50.0 °F 46% 29.56 in 10.0 mi North 10.4 mph - N/A   Clear
12:53 PM 71.1 °F 51.1 °F 49% 29.57 in 10.0 mi North 6.9 mph - 0.00 in Rain Light Rain
1:53 PM 72.0 °F 50.0 °F 46% 29.57 in 10.0 mi NNE 9.2 mph - 0.00 in   Mostly Cloudy
2:53 PM 73.0 °F 51.1 °F 46% 29.58 in 10.0 mi North 9.2 mph - N/A   Scattered Clouds
3:53 PM 77.0 °F 51.1 °F 40% 29.57 in 10.0 mi NNE 10.4 mph - N/A   Mostly Cloudy
4:53 PM 78.1 °F 51.1 °F 39% 29.58 in 10.0 mi Calm Calm - N/A   Scattered Clouds
5:53 PM 63.0 °F 53.1 °F 70% 29.60 in 10.0 mi Variable 4.6 mph - N/A   Partly Cloudy
6:53 PM 64.9 °F 48.0 °F 54% 29.61 in 10.0 mi South 4.6 mph - N/A   Overcast
7:53 PM 66.0 °F 46.9 °F 50% 29.62 in 10.0 mi SSW 3.5 mph - N/A   Clear
8:53 PM 64.0 °F 46.9 °F 54% 29.62 in 10.0 mi Calm Calm - N/A   Clear
9:53 PM 62.1 °F 48.9 °F 62% 29.62 in 10.0 mi Calm Calm - N/A   Clear
10:53 PM 57.9 °F 48.9 °F 72% 29.62 in 10.0 mi NNW 3.5 mph - N/A   Clear
11:53 PM 55.9 °F 48.9 °F 77% 29.62 in 10.0 mi Calm Calm - N/A   Clear